TimeEDT,TemperatureF,Dew PointF,Humidity,Sea Level PressureIn,VisibilityMPH,Wind Direction,Wind SpeedMPH,Gust SpeedMPH,PrecipitationIn,Events,Conditions,WindDirDegrees,DateUTC
12:53 AM,66.0,64.9,96,30.04,3.0,North,6.9,-,0.00,,Overcast,10,2012-10-03 04:53:00
1:02 AM,64.4,64.4,100,30.04,2.0,NNE,8.1,-,N/A,,Overcast,30,2012-10-03 05:02:00
1:19 AM,64.4,64.4,100,30.04,1.8,NE,4.6,-,N/A,,Overcast,50,2012-10-03 05:19:00
1:53 AM,64.9,64.9,100,30.03,0.8,ENE,5.8,-,0.00,Rain,Light Rain,60,2012-10-03 05:53:00
2:41 AM,62.6,62.6,100,30.02,0.5,ENE,6.9,-,0.01,Fog-Rain,Light Rain,70,2012-10-03 06:41:00
2:48 AM,62.6,62.6,100,30.02,0.5,ENE,5.8,-,0.01,Fog,Fog,70,2012-10-03 06:48:00
2:53 AM,64.0,64.0,100,30.02,0.5,ENE,5.8,-,0.01,Fog,Fog,70,2012-10-03 06:53:00
3:12 AM,62.6,62.6,100,30.02,0.2,ENE,5.8,-,N/A,Fog,Fog,70,2012-10-03 07:12:00
3:31 AM,62.6,62.6,100,30.02,0.5,ENE,5.8,-,N/A,Fog,Fog,70,2012-10-03 07:31:00
3:44 AM,62.6,62.6,100,30.02,0.2,ENE,6.9,-,0.00,Fog-Rain,Light Rain,70,2012-10-03 07:44:00
3:53 AM,63.0,63.0,100,30.03,0.5,ENE,8.1,-,0.00,Fog,Fog,70,2012-10-03 07:53:00
4:00 AM,62.6,62.6,100,30.03,0.2,ENE,6.9,-,N/A,Fog,Fog,70,2012-10-03 08:00:00
4:14 AM,62.6,62.6,100,30.03,0.5,ENE,6.9,-,0.01,Fog-Rain,Light Rain,70,2012-10-03 08:14:00
4:53 AM,63.0,63.0,100,30.03,1.0,East,9.2,-,0.01,,Mist,90,2012-10-03 08:53:00
5:09 AM,62.6,62.6,100,30.03,0.8,East,8.1,-,N/A,,Mist,80,2012-10-03 09:09:00
5:26 AM,62.6,62.6,100,30.04,1.0,ENE,6.9,-,0.00,Rain,Light Rain,70,2012-10-03 09:26:00
5:53 AM,63.0,63.0,100,30.04,1.2,East,9.2,-,0.00,,Overcast,90,2012-10-03 09:53:00
6:40 AM,64.4,64.4,100,30.05,2.0,East,11.5,-,N/A,,Overcast,100,2012-10-03 10:40:00
6:53 AM,64.0,64.0,100,30.05,1.2,East,10.4,-,0.00,Rain,Light Rain,100,2012-10-03 10:53:00
7:53 AM,64.0,64.0,100,30.06,1.5,East,10.4,-,0.08,Rain,Light Rain,100,2012-10-03 11:53:00
8:35 AM,64.4,64.4,100,30.06,0.8,East,8.1,-,0.00,Rain,Light Rain,100,2012-10-03 12:35:00
8:42 AM,64.4,64.4,100,30.06,1.0,East,8.1,-,0.00,Rain,Light Rain,100,2012-10-03 12:42:00
8:53 AM,64.9,64.9,100,30.07,0.8,East,8.1,-,0.00,,Mist,100,2012-10-03 12:53:00
9:37 AM,64.4,64.4,100,30.07,1.0,SE,6.9,-,N/A,,Mist,130,2012-10-03 13:37:00
9:47 AM,64.4,64.4,100,30.07,0.8,ESE,6.9,-,N/A,,Mist,120,2012-10-03 13:47:00
9:48 AM,64.9,64.9,100,30.07,0.8,ESE,5.8,-,N/A,,Mist,120,2012-10-03 13:48:00
10:01 AM,66.2,66.2,100,30.07,0.8,ESE,8.1,-,N/A,,Mist,120,2012-10-03 14:01:00
10:53 AM,66.9,66.9,100,30.08,0.5,ESE,9.2,-,N/A,Fog,Fog,120,2012-10-03 14:53:00
11:53 AM,68.0,68.0,100,30.07,0.2,East,6.9,-,N/A,Fog,Fog,100,2012-10-03 15:53:00
12:00 PM,68.0,68.0,100,30.07,0.5,East,6.9,-,N/A,Fog,Fog,100,2012-10-03 16:00:00
12:53 PM,66.0,66.0,100,30.07,0.5,ESE,9.2,-,N/A,Fog,Fog,110,2012-10-03 16:53:00
1:03 PM,66.2,66.2,100,30.06,0.2,ESE,9.2,-,N/A,Fog,Fog,110,2012-10-03 17:03:00
1:11 PM,66.2,66.2,100,30.07,0.5,ESE,10.4,-,N/A,Fog,Fog,110,2012-10-03 17:11:00
1:53 PM,64.9,64.9,100,30.08,0.5,East,5.8,-,N/A,Fog,Fog,100,2012-10-03 17:53:00
2:07 PM,64.4,64.4,100,30.08,0.5,East,5.8,-,N/A,Fog,Fog,100,2012-10-03 18:07:00
2:36 PM,64.4,64.4,100,30.07,0.2,ESE,8.1,-,N/A,Fog,Fog,120,2012-10-03 18:36:00
2:53 PM,64.9,64.9,100,30.07,0.2,ESE,8.1,-,N/A,Fog,Fog,110,2012-10-03 18:53:00
3:29 PM,-9999,-9999,N/A,30.06,0.5,ESE,8.1,-,N/A,Fog,Fog,120,2012-10-03 19:29:00
3:42 PM,-9999,-9999,N/A,30.06,0.2,ESE,8.1,-,N/A,Fog,Fog,120,2012-10-03 19:42:00
3:53 PM,66.2,64.9,96,30.07,0.2,ESE,4.6,-,N/A,Fog,Fog,120,2012-10-03 19:53:00
4:05 PM,66.2,66.2,100,30.07,0.5,ESE,8.1,-,N/A,Fog,Fog,110,2012-10-03 20:05:00
4:48 PM,66.2,66.2,100,30.07,0.2,ESE,5.8,-,N/A,Fog,Fog,110,2012-10-03 20:48:00
4:53 PM,66.2,66.0,99,30.08,0.2,ESE,5.8,-,N/A,Fog,Fog,110,2012-10-03 20:53:00
5:53 PM,64.4,64.0,99,30.09,0.2,ESE,4.6,-,N/A,Fog,Fog,110,2012-10-03 21:53:00
6:05 PM,64.4,64.4,100,30.09,0.2,ESE,4.6,-,N/A,Fog,Fog,110,2012-10-03 22:05:00
6:53 PM,64.4,64.0,99,30.09,0.5,ESE,6.9,-,N/A,Fog,Fog,120,2012-10-03 22:53:00
7:34 PM,64.4,64.4,100,30.10,0.2,SE,5.8,-,0.00,Fog-Rain,Light Rain,130,2012-10-03 23:34:00
7:53 PM,64.4,64.0,99,30.10,0.2,SE,4.6,-,0.00,Fog,Fog,130,2012-10-03 23:53:00
8:53 PM,64.4,64.0,99,30.12,0.2,SSE,3.5,-,N/A,Fog,Fog,160,2012-10-04 00:53:00
9:28 PM,-9999,-9999,N/A,30.12,0.5,South,3.5,-,N/A,Fog,Fog,190,2012-10-04 01:28:00
9:53 PM,64.9,64.9,100,30.12,0.5,Calm,Calm,-,N/A,Fog,Fog,0,2012-10-04 01:53:00
10:13 PM,64.4,64.4,100,30.12,0.2,Calm,Calm,-,N/A,Fog,Fog,0,2012-10-04 02:13:00
10:22 PM,64.4,64.4,100,30.12,0.2,South,3.5,-,N/A,Fog,Fog,170,2012-10-04 02:22:00
10:53 PM,64.9,64.9,100,30.12,0.2,Calm,Calm,-,N/A,Fog,Fog,0,2012-10-04 02:53:00
11:07 PM,64.4,64.4,100,30.12,0.2,Calm,Calm,-,N/A,Fog,Fog,0,2012-10-04 03:07:00
11:23 PM,64.4,64.4,100,30.12,0.2,Calm,Calm,-,N/A,Fog,Fog,0,2012-10-04 03:23:00
11:37 PM,66.2,66.2,100,30.12,0.2,Calm,Calm,-,N/A,Fog,Fog,0,2012-10-04 03:37:00
11:53 PM,66.0,66.0,100,30.12,0.5,North,3.5,-,0.00,Fog-Rain,Light Rain,10,2012-10-04 03:53:00